Terminal Aerodrome Forecast
Issued by NWS

Home | Current Version | Previous Version | Graphics & Text | Print | Product List | Glossary On
Versions: 1 2 3 4 5 6 7 8 9 10 11 12 13 14 15 16 17 18 19 20 21
129
FTUS43 KICT 270222 AAB
TAFSLN
TAF AMD
KSLN 270222Z 2702/2724 VRB13G22KT P6SM -RA VCTS SCT035CB OVC100
     FM270500 15007KT P6SM -RA SCT010 OVC150
      TEMPO 2705/2709 VRB13G22KT 3SM TSRA OVC013CB
     FM270900 27009KT P6SM OVC015
     FM271200 29013KT P6SM SCT020=

USA.gov is the U.S. government's official web portal to all federal, state and local government web resources and services.